Time,TemperatureF,DewpointF,PressureIn,WindDirection,WindDirectionDegrees,WindSpeedMPH,WindSpeedGustMPH,Humidity,HourlyPrecipIn,Conditions,Clouds,dailyrainin,SoftwareType,DateUTC
2013-02-13 00:00:00,36.8,26.5,29.94,South,184,2.0,2.0,66,0.00,,---,0.00,VWS V14.01,2013-02-13 05:00:00,
2013-02-13 00:01:00,36.8,26.5,29.94,South,170,1.0,2.0,66,0.00,,---,0.00,VWS V14.01,2013-02-13 05:01:00,
2013-02-13 00:06:00,36.9,26.6,29.94,SSE,163,0.0,1.0,66,0.00,,---,0.00,VWS V14.01,2013-02-13 05:06:00,
2013-02-13 00:11:00,36.9,26.6,29.93,SSE,166,0.0,2.0,66,0.00,,---,0.00,VWS V14.01,2013-02-13 05:11:00,
2013-02-13 00:16:00,36.8,26.5,29.93,SSE,162,1.0,2.0,66,0.00,,---,0.00,VWS V14.01,2013-02-13 05:16:00,
2013-02-13 00:21:00,36.6,26.3,29.93,SSE,162,0.0,1.0,66,0.00,,---,0.00,VWS V14.01,2013-02-13 05:21:00,
2013-02-13 00:26:00,36.5,26.6,29.94,South,184,1.0,1.0,67,0.00,,---,0.00,VWS V14.01,2013-02-13 05:26:00,
2013-02-13 00:31:00,36.4,26.5,29.94,SSE,166,0.0,1.0,67,0.00,,---,0.00,VWS V14.01,2013-02-13 05:31:00,
2013-02-13 00:36:00,36.3,26.4,29.94,South,174,1.0,1.0,67,0.00,,---,0.00,VWS V14.01,2013-02-13 05:36:00,
2013-02-13 00:41:00,36.3,26.4,29.93,South,171,0.0,1.0,67,0.00,,---,0.00,VWS V14.01,2013-02-13 05:41:00,
2013-02-13 00:46:00,36.2,26.3,29.94,SSE,165,0.0,1.0,67,0.00,,---,0.00,VWS V14.01,2013-02-13 05:46:00,
2013-02-13 00:51:00,35.9,26.0,29.94,South,171,0.0,1.0,67,0.00,,---,0.00,VWS V14.01,2013-02-13 05:51:00,
2013-02-13 00:56:00,35.9,26.4,29.94,South,170,0.0,1.0,68,0.00,,---,0.00,VWS V14.01,2013-02-13 05:56:00,
2013-02-13 01:01:00,35.7,26.2,29.93,South,176,0.0,1.0,68,0.00,,---,0.00,VWS V14.01,2013-02-13 06:01:00,
2013-02-13 01:06:00,35.6,26.1,29.94,SSE,166,1.0,2.0,68,0.00,,---,0.00,VWS V14.01,2013-02-13 06:06:00,
2013-02-13 01:11:00,35.7,26.2,29.94,SE,129,1.0,1.0,68,0.00,,---,0.00,VWS V14.01,2013-02-13 06:11:00,
2013-02-13 01:16:00,35.8,26.3,29.94,SSE,162,0.0,1.0,68,0.00,,---,0.00,VWS V14.01,2013-02-13 06:16:00,
2013-02-13 01:21:00,35.7,26.5,29.93,South,172,1.0,1.0,69,0.00,,---,0.00,VWS V14.01,2013-02-13 06:21:00,
2013-02-13 01:26:00,35.5,26.4,29.93,South,172,1.0,2.0,69,0.00,,---,0.00,VWS V14.01,2013-02-13 06:26:00,
2013-02-13 01:31:00,35.4,26.3,29.93,SSE,166,1.0,1.0,69,0.00,,---,0.00,VWS V14.01,2013-02-13 06:31:00,
2013-02-13 01:36:00,35.4,26.3,29.93,SSE,165,0.0,1.0,69,0.00,,---,0.00,VWS V14.01,2013-02-13 06:36:00,
2013-02-13 01:41:00,35.3,26.2,29.93,South,170,0.0,1.0,69,0.00,,---,0.00,VWS V14.01,2013-02-13 06:41:00,
2013-02-13 01:46:00,35.3,26.2,29.93,SSW,210,1.0,1.0,69,0.00,,---,0.00,VWS V14.01,2013-02-13 06:46:00,
2013-02-13 01:51:00,35.1,26.3,29.92,SSW,204,1.0,2.0,70,0.00,,---,0.00,VWS V14.01,2013-02-13 06:51:00,
2013-02-13 01:56:00,35.2,26.4,29.92,SSW,194,1.0,1.0,70,0.00,,---,0.00,VWS V14.01,2013-02-13 06:56:00,
2013-02-13 02:01:00,34.9,26.1,29.92,South,191,0.0,2.0,70,0.00,,---,0.00,VWS V14.01,2013-02-13 07:01:00,
2013-02-13 02:06:00,34.8,26.4,29.91,SSE,160,1.0,1.0,71,0.00,,---,0.00,VWS V14.01,2013-02-13 07:06:00,
2013-02-13 02:11:00,34.9,26.1,29.91,South,173,1.0,1.0,70,0.00,,---,0.00,VWS V14.01,2013-02-13 07:11:00,
2013-02-13 02:16:00,34.9,26.1,29.90,SSE,150,1.0,2.0,70,0.00,,---,0.00,VWS V14.01,2013-02-13 07:16:00,
2013-02-13 02:21:00,34.9,26.1,29.90,SSE,165,1.0,1.0,70,0.00,,---,0.00,VWS V14.01,2013-02-13 07:21:00,
2013-02-13 02:26:00,34.9,26.5,29.90,SSE,166,0.0,2.0,71,0.00,,---,0.00,VWS V14.01,2013-02-13 07:26:00,
2013-02-13 02:31:00,34.8,26.4,29.90,SSE,160,1.0,1.0,71,0.00,,---,0.00,VWS V14.01,2013-02-13 07:31:00,
2013-02-13 02:36:00,34.8,26.4,29.90,SSE,155,0.0,2.0,71,0.00,,---,0.00,VWS V14.01,2013-02-13 07:36:00,
2013-02-13 02:41:00,34.9,26.5,29.91,South,179,1.0,2.0,71,0.00,,---,0.00,VWS V14.01,2013-02-13 07:41:00,
2013-02-13 02:46:00,34.9,26.1,29.90,SSE,158,1.0,1.0,70,0.00,,---,0.00,VWS V14.01,2013-02-13 07:46:00,
2013-02-13 02:51:00,34.9,26.1,29.90,South,173,1.0,1.0,70,0.00,,---,0.00,VWS V14.01,2013-02-13 07:51:00,
2013-02-13 02:56:00,34.8,26.4,29.90,SSE,166,1.0,1.0,71,0.00,,---,0.00,VWS V14.01,2013-02-13 07:56:00,
2013-02-13 03:01:00,34.8,26.4,29.90,South,174,1.0,1.0,71,0.00,,---,0.00,VWS V14.01,2013-02-13 08:01:00,
2013-02-13 03:07:00,35.0,26.2,29.89,South,172,0.0,0.0,70,0.00,,---,0.00,VWS V14.01,2013-02-13 08:07:00,
2013-02-13 03:12:00,34.8,26.0,29.89,SSE,163,0.0,0.0,70,0.00,,---,0.00,VWS V14.01,2013-02-13 08:12:00,
2013-02-13 03:17:00,34.5,26.1,29.89,SSE,150,1.0,1.0,71,0.00,,---,0.00,VWS V14.01,2013-02-13 08:17:00,
2013-02-13 03:22:00,34.5,26.1,29.89,SSE,163,0.0,1.0,71,0.00,,---,0.00,VWS V14.01,2013-02-13 08:22:00,
2013-02-13 03:27:00,34.2,26.1,29.89,South,169,1.0,1.0,72,0.00,,---,0.00,VWS V14.01,2013-02-13 08:27:00,
2013-02-13 03:32:00,34.1,26.0,29.89,SSE,166,0.0,1.0,72,0.00,,---,0.00,VWS V14.01,2013-02-13 08:32:00,
2013-02-13 03:37:00,34.2,26.1,29.89,SE,142,1.0,2.0,72,0.00,,---,0.00,VWS V14.01,2013-02-13 08:37:00,
2013-02-13 03:42:00,34.4,26.0,29.88,SSE,150,0.0,3.0,71,0.00,,---,0.00,VWS V14.01,2013-02-13 08:42:00,
2013-02-13 03:47:00,34.3,25.9,29.89,SSE,155,0.0,2.0,71,0.00,,---,0.00,VWS V14.01,2013-02-13 08:47:00,
2013-02-13 03:52:00,34.2,26.1,29.88,SSE,162,0.0,1.0,72,0.00,,---,0.00,VWS V14.01,2013-02-13 08:52:00,
2013-02-13 03:57:00,33.9,25.8,29.88,South,169,1.0,1.0,72,0.00,,---,0.00,VWS V14.01,2013-02-13 08:57:00,
2013-02-13 04:02:00,33.6,25.9,29.88,SSE,167,1.0,1.0,73,0.00,,---,0.00,VWS V14.01,2013-02-13 09:02:00,
2013-02-13 04:07:00,33.6,25.9,29.88,South,170,1.0,2.0,73,0.00,,---,0.00,VWS V14.01,2013-02-13 09:07:00,
2013-02-13 04:12:00,33.5,25.8,29.88,South,190,1.0,2.0,73,0.00,,---,0.00,VWS V14.01,2013-02-13 09:12:00,
2013-02-13 04:17:00,33.6,25.9,29.88,SSE,150,0.0,2.0,73,0.00,,---,0.00,VWS V14.01,2013-02-13 09:17:00,
2013-02-13 04:22:00,33.5,25.8,29.88,SSE,158,0.0,2.0,73,0.00,,---,0.00,VWS V14.01,2013-02-13 09:22:00,
2013-02-13 04:27:00,33.5,25.8,29.88,SE,144,0.0,1.0,73,0.00,,---,0.00,VWS V14.01,2013-02-13 09:27:00,
2013-02-13 04:32:00,33.6,25.5,29.88,SE,146,1.0,2.0,72,0.00,,---,0.00,VWS V14.01,2013-02-13 09:32:00,
2013-02-13 04:37:00,33.3,25.6,29.88,SSE,149,2.0,2.0,73,0.00,,---,0.00,VWS V14.01,2013-02-13 09:37:00,
2013-02-13 04:42:00,33.1,25.7,29.88,SSE,156,2.0,2.0,74,0.00,,---,0.00,VWS V14.01,2013-02-13 09:42:00,
2013-02-13 04:47:00,33.1,25.7,29.88,SSE,153,1.0,2.0,74,0.00,,---,0.00,VWS V14.01,2013-02-13 09:47:00,
2013-02-13 04:52:00,33.1,25.4,29.88,ESE,120,0.0,1.0,73,0.00,,---,0.00,VWS V14.01,2013-02-13 09:52:00,
2013-02-13 04:57:00,33.1,25.7,29.88,SSE,148,1.0,1.0,74,0.00,,---,0.00,VWS V14.01,2013-02-13 09:57:00,
2013-02-13 05:02:00,33.1,25.4,29.88,SSE,154,1.0,2.0,73,0.00,,---,0.00,VWS V14.01,2013-02-13 10:02:00,
2013-02-13 05:07:00,33.1,25.4,29.88,SSE,150,0.0,2.0,73,0.00,,---,0.00,VWS V14.01,2013-02-13 10:07:00,
2013-02-13 05:12:00,33.2,25.2,29.88,SSE,158,0.0,1.0,72,0.00,,---,0.00,VWS V14.01,2013-02-13 10:12:00,
2013-02-13 05:17:00,33.0,25.3,29.87,SSE,153,1.0,1.0,73,0.00,,---,0.00,VWS V14.01,2013-02-13 10:17:00,
2013-02-13 05:22:00,32.7,25.0,29.87,SE,144,1.0,1.0,73,0.00,,---,0.00,VWS V14.01,2013-02-13 10:22:00,
2013-02-13 05:27:00,32.8,25.1,29.87,SE,142,1.0,2.0,73,0.00,,---,0.00,VWS V14.01,2013-02-13 10:27:00,
2013-02-13 05:32:00,32.7,25.0,29.87,SSE,159,1.0,2.0,73,0.00,,---,0.00,VWS V14.01,2013-02-13 10:32:00,
2013-02-13 05:37:00,32.6,24.9,29.87,SSE,148,1.0,2.0,73,0.00,,---,0.00,VWS V14.01,2013-02-13 10:37:00,
2013-02-13 05:43:00,32.5,24.8,29.87,SSE,159,1.0,1.0,73,0.00,,---,0.00,VWS V14.01,2013-02-13 10:43:00,
2013-02-13 05:48:00,32.3,25.0,29.87,South,172,1.0,2.0,74,0.00,,---,0.00,VWS V14.01,2013-02-13 10:48:00,
2013-02-13 05:53:00,32.2,24.9,29.87,SSE,158,1.0,2.0,74,0.00,,---,0.00,VWS V14.01,2013-02-13 10:53:00,
2013-02-13 05:58:00,32.1,24.8,29.87,SSE,156,1.0,1.0,74,0.00,,---,0.00,VWS V14.01,2013-02-13 10:58:00,
2013-02-13 06:03:00,32.1,24.8,29.87,SSE,150,1.0,3.0,74,0.00,,---,0.00,VWS V14.01,2013-02-13 11:03:00,
2013-02-13 06:08:00,32.2,24.9,29.87,SSE,149,2.0,2.0,74,0.00,,---,0.00,VWS V14.01,2013-02-13 11:08:00,
2013-02-13 06:13:00,32.2,24.9,29.86,SSE,151,2.0,3.0,74,0.00,,---,0.00,VWS V14.01,2013-02-13 11:13:00,
2013-02-13 06:18:00,32.2,24.9,29.86,SE,136,3.0,3.0,74,0.00,,---,0.00,VWS V14.01,2013-02-13 11:18:00,
2013-02-13 06:23:00,32.3,25.0,29.87,ESE,123,3.0,3.0,74,0.00,,---,0.00,VWS V14.01,2013-02-13 11:23:00,
2013-02-13 06:28:00,32.0,25.0,29.87,SE,133,2.0,3.0,75,0.00,,---,0.00,VWS V14.01,2013-02-13 11:28:00,
2013-02-13 06:33:00,32.0,25.0,29.87,SSE,149,2.0,3.0,75,0.00,,---,0.00,VWS V14.01,2013-02-13 11:33:00,
2013-02-13 06:38:00,31.9,24.9,29.86,SE,143,1.0,3.0,75,0.00,,---,0.00,VWS V14.01,2013-02-13 11:38:00,
2013-02-13 06:43:00,32.0,25.0,29.87,SE,133,3.0,3.0,75,0.00,,---,0.00,VWS V14.01,2013-02-13 11:43:00,
2013-02-13 06:48:00,32.0,25.0,29.86,ESE,112,2.0,2.0,75,0.00,,---,0.00,VWS V14.01,2013-02-13 11:48:00,
2013-02-13 06:53:00,32.0,24.7,29.86,SE,134,3.0,3.0,74,0.00,,---,0.00,VWS V14.01,2013-02-13 11:53:00,
2013-02-13 06:58:00,32.0,24.7,29.86,SSE,150,2.0,2.0,74,0.00,,---,0.00,VWS V14.01,2013-02-13 11:58:00,
2013-02-13 07:04:00,31.9,24.6,29.86,SE,136,3.0,3.0,74,0.00,,---,0.00,VWS V14.01,2013-02-13 12:04:00,
2013-02-13 07:09:00,31.8,24.8,29.85,ESE,123,3.0,4.0,75,0.00,,---,0.00,VWS V14.01,2013-02-13 12:09:00,
2013-02-13 07:14:00,31.9,24.6,29.85,SE,134,2.0,4.0,74,0.00,,---,0.00,VWS V14.01,2013-02-13 12:14:00,
2013-02-13 07:19:00,32.0,24.7,29.85,SE,139,2.0,3.0,74,0.00,,---,0.00,VWS V14.01,2013-02-13 12:19:00,
2013-02-13 07:24:00,32.2,24.9,29.85,ESE,114,3.0,3.0,74,0.00,,---,0.00,VWS V14.01,2013-02-13 12:24:00,
2013-02-13 07:29:00,32.3,24.6,29.85,East,101,2.0,4.0,73,0.00,,---,0.00,VWS V14.01,2013-02-13 12:29:00,
2013-02-13 07:34:00,32.3,25.0,29.85,SE,144,1.0,3.0,74,0.00,,---,0.00,VWS V14.01,2013-02-13 12:34:00,
2013-02-13 07:39:00,32.3,24.6,29.85,ESE,108,3.0,3.0,73,0.00,,---,0.00,VWS V14.01,2013-02-13 12:39:00,
2013-02-13 07:44:00,32.4,24.7,29.86,ESE,110,4.0,4.0,73,0.00,,---,0.00,VWS V14.01,2013-02-13 12:44:00,
2013-02-13 07:49:00,32.5,24.8,29.85,ESE,112,2.0,5.0,73,0.00,,---,0.00,VWS V14.01,2013-02-13 12:49:00,
2013-02-13 07:54:00,32.5,24.8,29.85,ESE,103,4.0,5.0,73,0.00,,---,0.00,VWS V14.01,2013-02-13 12:54:00,
2013-02-13 08:00:00,32.6,24.9,29.85,SE,145,4.0,4.0,73,0.00,,---,0.00,VWS V14.01,2013-02-13 13:00:00,
2013-02-13 08:05:00,32.7,25.3,29.86,ESE,117,3.0,5.0,74,0.00,,---,0.00,VWS V14.01,2013-02-13 13:05:00,
2013-02-13 08:10:00,32.7,25.3,29.86,ESE,109,4.0,5.0,74,0.00,,---,0.00,VWS V14.01,2013-02-13 13:10:00,
2013-02-13 08:15:00,32.7,24.7,29.86,ESE,108,4.0,5.0,72,0.00,,---,0.00,VWS V14.01,2013-02-13 13:15:00,
2013-02-13 08:20:00,32.8,25.1,29.86,SE,132,3.0,5.0,73,0.00,,---,0.00,VWS V14.01,2013-02-13 13:20:00,
2013-02-13 08:25:00,32.9,25.2,29.86,SE,129,3.0,5.0,73,0.00,,---,0.00,VWS V14.01,2013-02-13 13:25:00,
2013-02-13 08:30:00,32.9,25.2,29.86,East,96,5.0,6.0,73,0.00,,---,0.00,VWS V14.01,2013-02-13 13:30:00,
2013-02-13 08:35:00,32.9,25.2,29.87,ESE,108,4.0,4.0,73,0.00,,---,0.00,VWS V14.01,2013-02-13 13:35:00,
2013-02-13 08:40:00,33.1,25.4,29.87,East,98,4.0,6.0,73,0.00,,---,0.00,VWS V14.01,2013-02-13 13:40:00,
2013-02-13 08:45:00,33.1,25.1,29.86,ESE,104,4.0,5.0,72,0.00,,---,0.00,VWS V14.01,2013-02-13 13:45:00,
2013-02-13 08:50:00,33.1,25.1,29.86,East,81,2.0,5.0,72,0.00,,---,0.00,VWS V14.01,2013-02-13 13:50:00,
2013-02-13 08:55:00,33.3,25.6,29.86,SE,128,4.0,4.0,73,0.00,,---,0.00,VWS V14.01,2013-02-13 13:55:00,
2013-02-13 09:00:00,33.3,25.3,29.86,ESE,113,4.0,4.0,72,0.00,,---,0.00,VWS V14.01,2013-02-13 14:00:00,
2013-02-13 09:05:00,33.4,25.4,29.85,East,98,7.0,7.0,72,0.00,,---,0.00,VWS V14.01,2013-02-13 14:05:00,
2013-02-13 09:10:00,33.4,25.4,29.85,ESE,123,2.0,5.0,72,0.00,,---,0.00,VWS V14.01,2013-02-13 14:10:00,
2013-02-13 09:15:00,33.3,25.3,29.85,SE,125,3.0,6.0,72,0.00,,---,0.00,VWS V14.01,2013-02-13 14:15:00,
2013-02-13 09:20:00,33.3,25.3,29.85,East,101,3.0,4.0,72,0.00,,---,0.00,VWS V14.01,2013-02-13 14:20:00,
2013-02-13 09:25:00,33.5,25.5,29.85,SE,124,2.0,4.0,72,0.00,,---,0.00,VWS V14.01,2013-02-13 14:25:00,
2013-02-13 09:30:00,33.5,25.5,29.84,ESE,105,5.0,5.0,72,0.00,,---,0.00,VWS V14.01,2013-02-13 14:30:00,
2013-02-13 09:35:00,33.7,26.0,29.84,ESE,113,4.0,4.0,73,0.00,,---,0.00,VWS V14.01,2013-02-13 14:35:00,
2013-02-13 09:40:00,33.8,25.4,29.84,ESE,119,4.0,4.0,71,0.00,,---,0.00,VWS V14.01,2013-02-13 14:40:00,
2013-02-13 09:45:00,33.7,25.3,29.84,ESE,112,3.0,4.0,71,0.00,,---,0.00,VWS V14.01,2013-02-13 14:45:00,
2013-02-13 09:50:00,34.2,26.1,29.84,East,92,2.0,4.0,72,0.00,,---,0.00,VWS V14.01,2013-02-13 14:50:00,
2013-02-13 09:55:00,34.4,26.0,29.84,ESE,113,3.0,3.0,71,0.00,,---,0.00,VWS V14.01,2013-02-13 14:55:00,
2013-02-13 10:00:00,34.6,26.2,29.83,SE,127,2.0,3.0,71,0.00,,---,0.00,VWS V14.01,2013-02-13 15:00:00,
2013-02-13 10:06:00,34.9,26.5,29.83,SE,132,2.0,3.0,71,0.00,,---,0.00,VWS V14.01,2013-02-13 15:06:00,
2013-02-13 10:11:00,34.9,25.8,29.84,ESE,112,3.0,4.0,69,0.00,,---,0.00,VWS V14.01,2013-02-13 15:11:00,
2013-02-13 10:16:00,35.2,26.4,29.84,SE,136,4.0,5.0,70,0.00,,---,0.00,VWS V14.01,2013-02-13 15:16:00,
2013-02-13 10:21:00,35.7,26.9,29.84,ESE,116,3.0,5.0,70,0.00,,---,0.00,VWS V14.01,2013-02-13 15:21:00,
2013-02-13 10:26:00,35.3,26.2,29.84,SE,124,3.0,4.0,69,0.00,,---,0.00,VWS V14.01,2013-02-13 15:26:00,
2013-02-13 10:31:00,35.1,26.3,29.83,ESE,113,3.0,3.0,70,0.00,,---,0.00,VWS V14.01,2013-02-13 15:31:00,
2013-02-13 10:36:00,35.1,26.3,29.83,ESE,109,2.0,3.0,70,0.00,,---,0.00,VWS V14.01,2013-02-13 15:36:00,
2013-02-13 10:41:00,35.1,26.7,29.83,East,90,2.0,3.0,71,0.00,,---,0.00,VWS V14.01,2013-02-13 15:41:00,
2013-02-13 10:46:00,35.3,26.5,29.82,ESE,110,4.0,4.0,70,0.00,,---,0.00,VWS V14.01,2013-02-13 15:46:00,
2013-02-13 10:51:00,35.3,26.9,29.82,East,97,4.0,4.0,71,0.00,,---,0.00,VWS V14.01,2013-02-13 15:51:00,
2013-02-13 10:56:00,35.2,26.8,29.82,ESE,113,2.0,4.0,71,0.00,,---,0.00,VWS V14.01,2013-02-13 15:56:00,
2013-02-13 11:01:00,35.3,27.2,29.82,ENE,74,3.0,4.0,72,0.00,,---,0.00,VWS V14.01,2013-02-13 16:01:00,
2013-02-13 11:06:00,35.6,27.5,29.82,SE,145,3.0,3.0,72,0.00,,---,0.00,VWS V14.01,2013-02-13 16:06:00,
2013-02-13 11:11:00,35.9,27.1,29.82,East,95,0.0,3.0,70,0.00,,---,0.00,VWS V14.01,2013-02-13 16:11:00,
2013-02-13 11:16:00,35.7,26.9,29.81,ESE,117,1.0,1.0,70,0.00,,---,0.00,VWS V14.01,2013-02-13 16:16:00,
2013-02-13 11:21:00,36.0,27.2,29.81,SE,128,1.0,1.0,70,0.00,,---,0.00,VWS V14.01,2013-02-13 16:21:00,
2013-02-13 11:26:00,36.1,27.6,29.80,East,86,1.0,1.0,71,0.00,,---,0.00,VWS V14.01,2013-02-13 16:26:00,
2013-02-13 11:32:00,36.5,28.0,29.80,ESE,103,1.0,2.0,71,0.00,,---,0.00,VWS V14.01,2013-02-13 16:32:00,
2013-02-13 11:37:00,36.9,28.0,29.80,East,99,3.0,3.0,70,0.00,,---,0.00,VWS V14.01,2013-02-13 16:37:00,
2013-02-13 11:42:00,36.9,27.7,29.79,ESE,116,3.0,5.0,69,0.00,,---,0.00,VWS V14.01,2013-02-13 16:42:00,
2013-02-13 11:47:00,36.9,27.7,29.78,ESE,113,3.0,4.0,69,0.00,,---,0.00,VWS V14.01,2013-02-13 16:47:00,
2013-02-13 11:52:00,37.3,28.1,29.77,SE,144,2.0,5.0,69,0.00,,---,0.00,VWS V14.01,2013-02-13 16:52:00,
2013-02-13 11:57:00,37.7,28.8,29.77,ESE,110,3.0,4.0,70,0.00,,---,0.00,VWS V14.01,2013-02-13 16:57:00,
2013-02-13 12:02:00,38.2,29.3,29.77,East,89,2.0,3.0,70,0.00,,---,0.00,VWS V14.01,2013-02-13 17:02:00,
2013-02-13 12:07:00,38.7,29.1,29.76,ENE,70,3.0,5.0,68,0.00,,---,0.00,VWS V14.01,2013-02-13 17:07:00,
2013-02-13 12:12:00,38.8,28.8,29.76,East,86,4.0,4.0,67,0.00,,---,0.00,VWS V14.01,2013-02-13 17:12:00,
2013-02-13 12:17:00,38.5,28.5,29.77,ESE,105,1.0,3.0,67,0.00,,---,0.00,VWS V14.01,2013-02-13 17:17:00,
2013-02-13 12:22:00,38.3,28.3,29.78,East,88,1.0,3.0,67,0.00,,---,0.00,VWS V14.01,2013-02-13 17:22:00,
2013-02-13 12:27:00,38.3,28.3,29.77,East,87,1.0,2.0,67,0.00,,---,0.00,VWS V14.01,2013-02-13 17:27:00,
2013-02-13 12:32:00,37.9,28.3,29.77,ESE,105,2.0,2.0,68,0.00,,---,0.00,VWS V14.01,2013-02-13 17:32:00,
2013-02-13 12:37:00,37.8,28.6,29.76,East,88,1.0,3.0,69,0.00,,---,0.00,VWS V14.01,2013-02-13 17:37:00,
2013-02-13 12:42:00,37.7,28.5,29.77,East,98,1.0,2.0,69,0.00,,---,0.00,VWS V14.01,2013-02-13 17:42:00,
2013-02-13 12:47:00,37.7,28.8,29.76,ESE,106,1.0,1.0,70,0.00,,---,0.00,VWS V14.01,2013-02-13 17:47:00,
2013-02-13 12:52:00,37.8,28.9,29.76,East,99,0.0,2.0,70,0.00,,---,0.00,VWS V14.01,2013-02-13 17:52:00,
2013-02-13 12:57:00,37.8,28.6,29.75,East,89,1.0,1.0,69,0.00,,---,0.00,VWS V14.01,2013-02-13 17:57:00,
2013-02-13 13:02:00,37.7,28.5,29.76,ESE,119,0.0,2.0,69,0.00,,---,0.00,VWS V14.01,2013-02-13 18:02:00,
2013-02-13 13:07:00,37.6,28.4,29.76,SE,136,1.0,1.0,69,0.00,,---,0.00,VWS V14.01,2013-02-13 18:07:00,
2013-02-13 13:12:00,37.6,28.7,29.76,East,89,0.0,0.0,70,0.00,,---,0.00,VWS V14.01,2013-02-13 18:12:00,
2013-02-13 13:17:00,37.6,28.7,29.76,East,86,0.0,0.0,70,0.00,,---,0.00,VWS V14.01,2013-02-13 18:17:00,
2013-02-13 13:23:00,37.6,28.7,29.75,ENE,58,0.0,0.0,70,0.00,,---,0.00,VWS V14.01,2013-02-13 18:23:00,
2013-02-13 13:28:00,37.5,28.6,29.75,East,94,0.0,0.0,70,0.00,,---,0.00,VWS V14.01,2013-02-13 18:28:00,
2013-02-13 13:33:00,37.5,29.0,29.74,East,84,0.0,1.0,71,0.00,,---,0.00,VWS V14.01,2013-02-13 18:33:00,
2013-02-13 13:38:00,37.6,29.1,29.74,East,94,0.0,0.0,71,0.00,,---,0.00,VWS V14.01,2013-02-13 18:38:00,
2013-02-13 13:43:00,37.7,29.2,29.74,East,93,0.0,1.0,71,0.00,,---,0.00,VWS V14.01,2013-02-13 18:43:00,
2013-02-13 13:48:00,37.7,28.8,29.73,ENE,61,1.0,1.0,70,0.00,,---,0.00,VWS V14.01,2013-02-13 18:48:00,
2013-02-13 13:53:00,37.9,29.0,29.73,East,91,1.0,1.0,70,0.00,,---,0.00,VWS V14.01,2013-02-13 18:53:00,
2013-02-13 13:58:00,37.9,29.0,29.73,NNE,29,0.0,0.0,70,0.00,,---,0.00,VWS V14.01,2013-02-13 18:58:00,
2013-02-13 14:03:00,37.8,28.9,29.73,SSE,150,0.0,0.0,70,0.00,,---,0.00,VWS V14.01,2013-02-13 19:03:00,
2013-02-13 14:08:00,37.7,28.8,29.72,SE,127,0.0,1.0,70,0.00,,---,0.00,VWS V14.01,2013-02-13 19:08:00,
2013-02-13 14:13:00,37.6,29.1,29.72,East,94,0.0,0.0,71,0.00,,---,0.00,VWS V14.01,2013-02-13 19:13:00,
2013-02-13 14:18:00,37.7,29.2,29.72,ENE,67,1.0,1.0,71,0.00,,---,0.00,VWS V14.01,2013-02-13 19:18:00,
2013-02-13 14:23:00,37.6,29.4,29.71,ESE,119,0.0,1.0,72,0.00,,---,0.00,VWS V14.01,2013-02-13 19:23:00,
2013-02-13 14:28:00,37.5,29.0,29.71,East,94,0.0,1.0,71,0.00,,---,0.00,VWS V14.01,2013-02-13 19:28:00,
2013-02-13 14:33:00,37.4,29.2,29.70,East,94,0.0,0.0,72,0.00,,---,0.00,VWS V14.01,2013-02-13 19:33:00,
2013-02-13 14:39:00,37.5,29.3,29.69,NE,41,0.0,0.0,72,0.00,,---,0.00,VWS V14.01,2013-02-13 19:39:00,
2013-02-13 14:44:00,37.6,29.7,29.69,NE,47,0.0,0.0,73,0.00,,---,0.00,VWS V14.01,2013-02-13 19:44:00,
2013-02-13 14:49:00,37.7,29.5,29.69,ENE,74,1.0,1.0,72,0.00,,---,0.00,VWS V14.01,2013-02-13 19:49:00,
2013-02-13 14:54:00,37.7,29.8,29.69,ENE,72,0.0,0.0,73,0.00,,---,0.00,VWS V14.01,2013-02-13 19:54:00,
2013-02-13 14:59:00,37.8,29.6,29.69,NNW,328,0.0,1.0,72,0.00,,---,0.00,VWS V14.01,2013-02-13 19:59:00,
2013-02-13 15:04:00,37.9,29.7,29.68,NW,326,1.0,1.0,72,0.00,,---,0.00,VWS V14.01,2013-02-13 20:04:00,
2013-02-13 15:09:00,38.0,29.5,29.69,NNE,27,0.0,1.0,71,0.00,,---,0.00,VWS V14.01,2013-02-13 20:09:00,
2013-02-13 15:14:00,38.1,29.9,29.68,NE,34,0.0,0.0,72,0.00,,---,0.00,VWS V14.01,2013-02-13 20:14:00,
2013-02-13 15:19:00,38.2,29.3,29.68,ESE,105,1.0,1.0,70,0.00,,---,0.00,VWS V14.01,2013-02-13 20:19:00,
2013-02-13 15:24:00,38.4,30.2,29.68,ESE,115,0.0,2.0,72,0.00,,---,0.00,VWS V14.01,2013-02-13 20:24:00,
2013-02-13 15:29:00,38.4,29.5,29.68,East,89,0.0,0.0,70,0.00,,---,0.00,VWS V14.01,2013-02-13 20:29:00,
2013-02-13 15:34:00,38.6,30.0,29.68,East,89,0.0,0.0,71,0.00,,---,0.00,VWS V14.01,2013-02-13 20:34:00,
2013-02-13 15:39:00,38.5,29.6,29.69,ESE,113,0.0,0.0,70,0.00,,---,0.00,VWS V14.01,2013-02-13 20:39:00,
2013-02-13 15:44:00,38.5,29.9,29.68,ESE,113,0.0,0.0,71,0.00,,---,0.00,VWS V14.01,2013-02-13 20:44:00,
2013-02-13 15:50:00,38.5,29.6,29.68,ESE,117,0.0,2.0,70,0.00,,---,0.00,VWS V14.01,2013-02-13 20:50:00,
2013-02-13 15:55:00,38.5,29.6,29.68,East,88,0.0,0.0,70,0.00,,---,0.00,VWS V14.01,2013-02-13 20:55:00,
2013-02-13 16:00:00,38.4,29.1,29.68,West,267,0.0,0.0,69,0.00,,---,0.00,VWS V14.01,2013-02-13 21:00:00,
2013-02-13 16:05:00,38.4,29.8,29.68,North,352,0.0,0.0,71,0.00,,---,0.00,VWS V14.01,2013-02-13 21:05:00,
2013-02-13 16:10:00,38.5,29.6,29.69,North,356,0.0,1.0,70,0.00,,---,0.00,VWS V14.01,2013-02-13 21:10:00,
2013-02-13 16:15:00,38.4,29.5,29.68,NNE,22,0.0,0.0,70,0.00,,---,0.00,VWS V14.01,2013-02-13 21:15:00,
2013-02-13 16:20:00,38.3,29.7,29.68,NNE,20,0.0,0.0,71,0.00,,---,0.00,VWS V14.01,2013-02-13 21:20:00,
2013-02-13 16:26:00,38.2,29.6,29.68,NNE,20,1.0,1.0,71,0.00,,---,0.00,VWS V14.01,2013-02-13 21:26:00,
2013-02-13 16:31:00,38.1,29.9,29.68,NNW,347,0.0,1.0,72,0.00,,---,0.00,VWS V14.01,2013-02-13 21:31:00,
2013-02-13 16:36:00,38.0,30.1,29.67,North,352,0.0,0.0,73,0.00,,---,0.00,VWS V14.01,2013-02-13 21:36:00,
2013-02-13 16:41:00,37.9,30.4,29.67,North,352,0.0,0.0,74,0.00,,---,0.00,VWS V14.01,2013-02-13 21:41:00,
2013-02-13 16:46:00,37.7,30.5,29.67,North,359,0.0,0.0,75,0.00,,---,0.00,VWS V14.01,2013-02-13 21:46:00,
2013-02-13 16:51:00,37.5,30.3,29.67,North,359,0.0,0.0,75,0.00,,---,0.00,VWS V14.01,2013-02-13 21:51:00,
2013-02-13 16:56:00,37.2,30.4,29.67,West,267,0.0,0.0,76,0.00,,---,0.00,VWS V14.01,2013-02-13 21:56:00,
2013-02-13 17:01:00,37.1,30.9,29.67,NNW,348,0.0,0.0,78,0.00,,---,0.00,VWS V14.01,2013-02-13 22:01:00,
2013-02-13 17:06:00,36.9,31.0,29.67,West,272,0.0,0.0,79,0.00,,---,0.00,VWS V14.01,2013-02-13 22:06:00,
2013-02-13 17:11:00,36.7,31.1,29.67,NW,308,0.0,2.0,80,0.00,,---,0.00,VWS V14.01,2013-02-13 22:11:00,
2013-02-13 17:16:00,36.5,31.2,29.67,NW,307,0.0,0.0,81,0.00,,---,0.00,VWS V14.01,2013-02-13 22:16:00,
2013-02-13 17:21:00,36.3,31.3,29.67,NW,307,0.0,0.0,82,0.00,,---,0.00,VWS V14.01,2013-02-13 22:21:00,
2013-02-13 17:27:00,36.1,31.5,29.68,NW,306,0.0,0.0,83,0.00,,---,0.00,VWS V14.01,2013-02-13 22:27:00,
2013-02-13 17:32:00,35.9,31.2,29.68,WNW,285,0.0,0.0,83,0.00,,---,0.00,VWS V14.01,2013-02-13 22:32:00,
2013-02-13 17:37:00,35.8,31.5,29.68,West,273,0.0,0.0,84,0.00,,---,0.00,VWS V14.01,2013-02-13 22:37:00,
2013-02-13 17:42:00,35.6,31.2,29.68,West,273,0.0,0.0,84,0.00,,---,0.00,VWS V14.01,2013-02-13 22:42:00,
2013-02-13 17:47:00,35.3,31.2,29.68,West,273,0.0,0.0,85,0.00,,---,0.00,VWS V14.01,2013-02-13 22:47:00,
2013-02-13 17:52:00,35.0,31.2,29.68,West,272,0.0,0.0,86,0.00,,---,0.00,VWS V14.01,2013-02-13 22:52:00,
2013-02-13 17:57:00,34.8,31.3,29.68,West,273,0.0,0.0,87,0.00,,---,0.00,VWS V14.01,2013-02-13 22:57:00,
2013-02-13 18:02:00,34.6,31.4,29.68,West,273,0.0,0.0,88,0.00,,---,0.00,VWS V14.01,2013-02-13 23:02:00,
2013-02-13 18:07:00,34.3,31.4,29.68,West,274,0.0,0.0,89,0.00,,---,0.00,VWS V14.01,2013-02-13 23:07:00,
2013-02-13 18:12:00,33.9,31.0,29.68,West,273,0.0,0.0,89,0.00,,---,0.00,VWS V14.01,2013-02-13 23:12:00,
2013-02-13 18:17:00,33.6,31.0,29.68,West,263,0.0,0.0,90,0.00,,---,0.00,VWS V14.01,2013-02-13 23:17:00,
2013-02-13 18:22:00,33.4,30.8,29.68,West,264,0.0,0.0,90,0.00,,---,0.00,VWS V14.01,2013-02-13 23:22:00,
2013-02-13 18:28:00,33.2,30.9,29.69,West,263,0.0,0.0,91,0.00,,---,0.00,VWS V14.01,2013-02-13 23:28:00,
2013-02-13 18:33:00,33.0,30.7,29.70,West,263,0.0,0.0,91,0.00,,---,0.00,VWS V14.01,2013-02-13 23:33:00,
2013-02-13 18:38:00,32.9,30.8,29.70,West,263,0.0,0.0,92,0.00,,---,0.00,VWS V14.01,2013-02-13 23:38:00,
2013-02-13 18:43:00,32.8,30.7,29.71,West,264,0.0,0.0,92,0.00,,---,0.00,VWS V14.01,2013-02-13 23:43:00,
2013-02-13 18:48:00,32.7,30.6,29.71,West,263,0.0,0.0,92,0.00,,---,0.00,VWS V14.01,2013-02-13 23:48:00,
2013-02-13 18:53:00,32.6,30.8,29.71,West,263,0.0,0.0,93,0.00,,---,0.00,VWS V14.01,2013-02-13 23:53:00,
2013-02-13 18:58:00,32.5,30.7,29.71,West,263,0.0,0.0,93,0.00,,---,0.00,VWS V14.01,2013-02-13 23:58:00,
2013-02-13 19:03:00,32.4,30.6,29.71,West,264,0.0,0.0,93,0.00,,---,0.00,VWS V14.01,2013-02-14 00:03:00,
2013-02-13 19:09:00,32.3,30.5,29.71,West,263,0.0,0.0,93,0.00,,---,0.00,VWS V14.01,2013-02-14 00:09:00,
2013-02-13 19:14:00,32.3,30.8,29.71,West,267,0.0,0.0,94,0.00,,---,0.00,VWS V14.01,2013-02-14 00:14:00,
2013-02-13 19:19:00,32.2,30.7,29.71,West,267,0.0,0.0,94,0.00,,---,0.00,VWS V14.01,2013-02-14 00:19:00,
2013-02-13 19:24:00,32.1,30.6,29.71,West,267,0.0,0.0,94,0.00,,---,0.00,VWS V14.01,2013-02-14 00:24:00,
2013-02-13 19:29:00,32.1,30.6,29.72,West,269,0.0,0.0,94,0.00,,---,0.00,VWS V14.01,2013-02-14 00:29:00,
2013-02-13 19:34:00,32.0,30.5,29.72,West,267,0.0,0.0,94,0.00,,---,0.00,VWS V14.01,2013-02-14 00:34:00,
2013-02-13 19:39:00,32.0,30.5,29.72,West,267,0.0,0.0,94,0.00,,---,0.00,VWS V14.01,2013-02-14 00:39:00,
2013-02-13 19:44:00,31.9,30.4,29.72,West,267,0.0,0.0,94,0.00,,---,0.00,VWS V14.01,2013-02-14 00:44:00,
2013-02-13 19:49:00,31.9,30.6,29.72,West,267,0.0,0.0,95,0.00,,---,0.00,VWS V14.01,2013-02-14 00:49:00,
2013-02-13 19:55:00,31.8,30.5,29.72,West,267,0.0,0.0,95,0.00,,---,0.00,VWS V14.01,2013-02-14 00:55:00,
2013-02-13 20:00:00,31.8,30.5,29.72,West,266,0.0,0.0,95,0.00,,---,0.00,VWS V14.01,2013-02-14 01:00:00,
2013-02-13 20:05:00,31.8,30.5,29.73,West,267,0.0,0.0,95,0.00,,---,0.00,VWS V14.01,2013-02-14 01:05:00,
2013-02-13 20:10:00,31.8,30.5,29.73,West,267,0.0,0.0,95,0.00,,---,0.00,VWS V14.01,2013-02-14 01:10:00,
2013-02-13 20:15:00,31.8,30.5,29.73,West,267,0.0,0.0,95,0.00,,---,0.00,VWS V14.01,2013-02-14 01:15:00,
2013-02-13 20:21:00,31.8,30.5,29.73,West,267,0.0,0.0,95,0.00,,---,0.00,VWS V14.01,2013-02-14 01:21:00,
2013-02-13 20:26:00,31.7,30.4,29.73,West,267,0.0,0.0,95,0.00,,---,0.00,VWS V14.01,2013-02-14 01:26:00,
2013-02-13 20:31:00,31.7,30.4,29.73,West,267,0.0,0.0,95,0.00,,---,0.00,VWS V14.01,2013-02-14 01:31:00,
2013-02-13 20:36:00,31.7,30.4,29.73,West,267,0.0,0.0,95,0.00,,---,0.00,VWS V14.01,2013-02-14 01:36:00,
2013-02-13 20:41:00,31.6,30.3,29.74,West,267,0.0,0.0,95,0.00,,---,0.00,VWS V14.01,2013-02-14 01:41:00,
2013-02-13 20:46:00,31.6,30.3,29.74,West,262,0.0,0.0,95,0.00,,---,0.00,VWS V14.01,2013-02-14 01:46:00,
2013-02-13 20:51:00,31.6,30.3,29.74,West,262,0.0,0.0,95,0.00,,---,0.00,VWS V14.01,2013-02-14 01:51:00,
2013-02-13 20:56:00,31.5,30.2,29.74,West,262,0.0,0.0,95,0.00,,---,0.00,VWS V14.01,2013-02-14 01:56:00,
2013-02-13 21:02:00,31.5,30.2,29.74,West,262,0.0,0.0,95,0.00,,---,0.00,VWS V14.01,2013-02-14 02:02:00,
2013-02-13 21:07:00,31.4,30.1,29.74,West,262,0.0,0.0,95,0.00,,---,0.00,VWS V14.01,2013-02-14 02:07:00,
2013-02-13 21:12:00,31.4,30.1,29.74,West,259,0.0,0.0,95,0.00,,---,0.00,VWS V14.01,2013-02-14 02:12:00,
2013-02-13 21:17:00,31.4,30.4,29.74,West,259,0.0,0.0,96,0.00,,---,0.00,VWS V14.01,2013-02-14 02:17:00,
2013-02-13 21:22:00,31.3,30.3,29.75,West,260,0.0,0.0,96,0.00,,---,0.00,VWS V14.01,2013-02-14 02:22:00,
2013-02-13 21:27:00,31.3,30.3,29.75,SW,217,0.0,0.0,96,0.00,,---,0.00,VWS V14.01,2013-02-14 02:27:00,
2013-02-13 21:32:00,31.3,30.3,29.75,SW,217,0.0,0.0,96,0.00,,---,0.00,VWS V14.01,2013-02-14 02:32:00,
2013-02-13 21:37:00,31.3,30.3,29.75,SW,217,0.0,0.0,96,0.00,,---,0.00,VWS V14.01,2013-02-14 02:37:00,
2013-02-13 21:42:00,31.3,30.3,29.75,SW,217,0.0,0.0,96,0.00,,---,0.00,VWS V14.01,2013-02-14 02:42:00,
2013-02-13 21:47:00,31.3,30.3,29.75,SW,217,0.0,0.0,96,0.00,,---,0.00,VWS V14.01,2013-02-14 02:47:00,
2013-02-13 21:52:00,31.3,30.3,29.75,SW,217,0.0,0.0,96,0.00,,---,0.00,VWS V14.01,2013-02-14 02:52:00,
2013-02-13 21:57:00,31.3,30.3,29.75,SW,217,0.0,0.0,96,0.00,,---,0.00,VWS V14.01,2013-02-14 02:57:00,
2013-02-13 22:03:00,31.2,30.2,29.75,SSW,205,0.0,0.0,96,0.00,,---,0.00,VWS V14.01,2013-02-14 03:03:00,
2013-02-13 22:08:00,31.2,30.2,29.75,SSW,205,0.0,0.0,96,0.00,,---,0.00,VWS V14.01,2013-02-14 03:08:00,
2013-02-13 22:13:00,31.2,30.2,29.75,SSW,205,0.0,0.0,96,0.00,,---,0.00,VWS V14.01,2013-02-14 03:13:00,
2013-02-13 22:18:00,31.2,30.2,29.75,SSW,205,0.0,0.0,96,0.00,,---,0.00,VWS V14.01,2013-02-14 03:18:00,
2013-02-13 22:23:00,31.2,30.2,29.75,SW,217,0.0,0.0,96,0.00,,---,0.00,VWS V14.01,2013-02-14 03:23:00,
2013-02-13 22:28:00,31.2,30.2,29.75,SW,218,0.0,0.0,96,0.00,,---,0.00,VWS V14.01,2013-02-14 03:28:00,
2013-02-13 22:33:00,31.3,30.3,29.76,SW,218,0.0,0.0,96,0.00,,---,0.00,VWS V14.01,2013-02-14 03:33:00,
2013-02-13 22:38:00,31.3,30.3,29.76,SW,218,0.0,0.0,96,0.00,,---,0.00,VWS V14.01,2013-02-14 03:38:00,
2013-02-13 22:43:00,31.3,30.3,29.76,SW,218,0.0,0.0,96,0.00,,---,0.00,VWS V14.01,2013-02-14 03:43:00,
2013-02-13 22:48:00,31.3,30.3,29.76,SW,218,0.0,0.0,96,0.00,,---,0.00,VWS V14.01,2013-02-14 03:48:00,
2013-02-13 22:53:00,31.3,30.3,29.76,WSW,255,0.0,0.0,96,0.00,,---,0.00,VWS V14.01,2013-02-14 03:53:00,
2013-02-13 22:58:00,31.2,30.2,29.76,WSW,255,0.0,0.0,96,0.00,,---,0.00,VWS V14.01,2013-02-14 03:58:00,
2013-02-13 23:04:00,31.1,30.1,29.76,WSW,255,0.0,0.0,96,0.00,,---,0.00,VWS V14.01,2013-02-14 04:04:00,
2013-02-13 23:09:00,31.1,30.1,29.77,WSW,255,0.0,0.0,96,0.00,,---,0.00,VWS V14.01,2013-02-14 04:09:00,
2013-02-13 23:14:00,31.1,30.1,29.77,SSW,197,0.0,0.0,96,0.00,,---,0.00,VWS V14.01,2013-02-14 04:14:00,
2013-02-13 23:19:00,31.0,30.0,29.77,SSW,196,0.0,0.0,96,0.00,,---,0.00,VWS V14.01,2013-02-14 04:19:00,
2013-02-13 23:24:00,31.0,30.0,29.77,SSW,197,0.0,0.0,96,0.00,,---,0.00,VWS V14.01,2013-02-14 04:24:00,
2013-02-13 23:29:00,31.1,30.1,29.78,SSW,197,0.0,0.0,96,0.00,,---,0.00,VWS V14.01,2013-02-14 04:29:00,
2013-02-13 23:34:00,31.1,30.1,29.77,SSW,197,0.0,0.0,96,0.00,,---,0.00,VWS V14.01,2013-02-14 04:34:00,
2013-02-13 23:39:00,31.1,30.1,29.77,SSW,197,0.0,0.0,96,0.00,,---,0.00,VWS V14.01,2013-02-14 04:39:00,
2013-02-13 23:44:00,31.2,30.2,29.78,SSW,196,0.0,0.0,96,0.00,,---,0.00,VWS V14.01,2013-02-14 04:44:00,
2013-02-13 23:49:00,31.2,30.2,29.78,SSW,197,0.0,0.0,96,0.00,,---,0.00,VWS V14.01,2013-02-14 04:49:00,
2013-02-13 23:54:00,31.2,30.2,29.78,SSW,197,0.0,0.0,96,0.00,,---,0.00,VWS V14.01,2013-02-14 04:54:00,
2013-02-13 23:59:00,31.2,30.2,29.78,SSW,197,0.0,0.0,96,0.00,,---,0.00,VWS V14.01,2013-02-14 04:59:00,